Regional Weather Roundup
Issued by NWS Sterling, VA

Current Version | Previous Version | Text Only | Print | Product List | Glossary On
Versions: 1 2 3 4 5 6 7 8 9 10 11 12 13 14 15 16 17 18 19 20 21 22 23 24 25 26 27 28 29 30 31 32 33 34 35 36 37 38 39 40 41 42 43 44 45 46 47 48 49
000
ASUS41 KLWX 190010
RWRLWX

REGIONAL WEATHER ROUNDUP
NATIONAL WEATHER SERVICE BALTIMORE MD/WASHINGTON DC
700 PM EST THU DEC 18 2014

Note: "FAIR" indicates few or no clouds below 12,000 feet
with no significant weather and/or obstructions to visibility.
 TC=TEMPERATURE CELSIUS

 * =Non NWS site. Station does not report precipitation (e.g. rain,
    snow, etc.), thunder, or fog.

DCZ001-MDZ009-015-VAZ040>042-051-053>054-190100-
WASHINGTON METRO

CITY           SKY/WX    TMP DP  RH WIND       PRES   REMARKS
WASHINGTON NAT MOCLDY    39  22  50 NW12      30.13S
DULLES         MOCLDY    34  22  61 NW9       30.13R WCI  27
FT BELVOIR     CLOUDY    37  22  54 NW10      30.14R
QUANTICO       CLOUDY    38  22  52 N7        30.15R
COLLEGE PARK*  MOCLDY    36  23  60 NW6       30.11S
LEESBURG*      PTCLDY    34  27  75 W5        30.13R
MANASSAS*      MOCLDY    36  25  64 NW6       30.13R
GAITHERSBURG*  FAIR      34  21  60 NW9       30.14R WCI  26

$$

MDZ006>007-011-014-190100-
BALTIMORE METRO

CITY           SKY/WX    TMP DP  RH WIND       PRES   REMARKS
BWI AIRPORT    MOCLDY    33  22  63 W5        30.11R
MD SCIENCE CTR   N/A     36  22  56 MISG      30.11R
ANNAPOLIS      CLOUDY    37  23  56 W6        30.11S
FORT MEADE*    PTCLDY    32  27  80 W5        30.13S

$$

MDZ012-015-019>023-190100-
MARYLAND EASTERN SHORE

CITY           SKY/WX    TMP DP  RH WIND       PRES   REMARKS
OCEAN CITY     CLEAR     34  23  64 VRB5      30.09S
SALISBURY      CLEAR     37  24  59 NW5       30.09R
BAY BRIDGE AP*   N/A     36  25  64 NW7       30.10F
CAMBRIDGE*     PTCLDY    37  27  65 NW6       30.10S
EASTON*        CLEAR     37  27  65 NW9       30.14R

$$

MDZ017>025-190100-
SOUTHERN MARYLAND

CITY           SKY/WX    TMP DP  RH WIND       PRES   REMARKS
PATUXENT RIVER MOCLDY    38  22  52 NW12      30.11S
ST INIGOES     PTCLDY    38  21  50 VRB5      30.11R
LEONARDTOWN*   PTCLDY    36  23  60 CALM      30.12S

$$

MDZ003>005-190100-
NORTH CENTRAL MARYLAND

CITY           SKY/WX    TMP DP  RH WIND       PRES   REMARKS
FREDERICK*     MOCLDY    36  21  55 NW5       30.15R
HAGERSTOWN APT CLOUDY    34  22  61 W8        30.10R WCI  27
WESTMINSTER*   MOCLDY    32  21  64 W3        30.07S

$$

MDZ501>502-190100-
WESTERN MARYLAND

CITY           SKY/WX    TMP DP  RH WIND       PRES   REMARKS
OAKLAND*       NOT AVBL
CUMBERLAND*    CLOUDY    32  23  69 W7        30.17S

$$

VAZ025>031-190100-
SHENANDOAH VALLEY

CITY           SKY/WX    TMP DP  RH WIND       PRES   REMARKS
WINCHESTER*    CLOUDY    34  19  55 NW10      30.11S WCI  26
FRONT ROYAL*   CLOUDY    32  23  69 CALM      30.11S
LURAY*         MOCLDY    36  27  69 NE7       30.09F
NEW MARKET*    CLOUDY    34  23  64 N5        30.09F
STAUNTON*      CLOUDY    37  24  60 NE3       30.09S
WAYNESBORO*    CLOUDY    36  22  57 CALM      30.06S

$$

WVZ021-048>050-054>055-190100-
EASTERN WEST VIRGINIA PANHANDLE

CITY           SKY/WX    TMP DP  RH WIND       PRES   REMARKS
MARTINSBURG    MOCLDY    35  19  52 W10       30.13R WCI  27
PETERSBURG*    NOT AVBL

$$

VAZ036>039-050-190100-
CENTRAL FOOTHILLS

CITY           SKY/WX    TMP DP  RH WIND       PRES   REMARKS
CHARLOTTESVILL CLOUDY    38  24  57 NE7       30.10R
CULPEPER*      MOCLDY    37  25  60 N3        30.13R
ORANGE*        CLOUDY    36  27  69 N3        30.13R
GORDONSVILLE*  CLOUDY    36  24  61 NE5       30.11R
WARRENTON*     FAIR      36  28  73 N6        30.12R

$$

VAZ055>057-190100-
NORTH AND CENTRAL PIEDMONT

CITY           SKY/WX    TMP DP  RH WIND       PRES   REMARKS
FREDERICKSBRG* CLOUDY    39  25  57 NW6       30.13R
STAFFORD*      CLOUDY    37  22  55 NW6       30.17R

$$

NCZ024-NYZ072-PAZ021-071-VAZ022-071-190100-
OTHER REGIONAL OBSERVATIONS

CITY           SKY/WX    TMP DP  RH WIND       PRES   REMARKS
NEW YORK CITY  MOCLDY    39  25  57 NW10G20   29.98F
PHILADELPHIA   MOCLDY    37  24  59 W9        30.06R
PITTSBURGH     CLOUDY    28  21  75 W8        30.15S WCI  20
ROANOKE        CLOUDY    43  21  41 NW13      30.11R
RICHMOND       MOCLDY    38  22  52 CALM      30.11R
RALEIGH        MOCLDY    41  26  55 CALM      30.11R

$$

ANZ530>537-190100-
MARINE OBSERVATIONS

STATION/POSITION TIME  TEMP    WIND        PRES
                       AIR SEA DIR/SP/G
                 (UTC) (F)     (DEG/KT/KT) (MB)
THOMAS PT LIGHT  0000   37 42  310/ 11/ 13 1020.8R
BALT KEY BRIDGE  0000   37     280/  8/ 10 1019.3R
COVE POINT       0000   37     350/ 14/ 17 1019.4R
LEWISETTA        0000   39 44  360/  6/ 10 1019.5R
SOLOMONS ISLAND  0000      44                N/A
PINEY POINT      0000           10/  6/  7   N/A

$$



USA.gov is the U.S. government's official web portal to all federal, state and local government web resources and services.